Other Public Products
Issued by NWS Grand Forks, ND

Home | Current Version | Previous Version | Text Only | Print | Product List | Glossary Off
Versions: 1 2 3 4 5 6 7 8 9 10 11 12 13 14 15 16 17 18 19 20 21 22 23 24 25 26 27 28 29 30 31 32 33 34 35 36 37 38 39 40 41 42 43 44 45 46 47 48 49 50

000
FPUS83 KFGF 300931
OPUFGF
PRAIRIE TO PINES WEATHER ROUNDUP
NATIONAL WEATHER SERVICE EASTERN NORTH DAKOTA/GRAND FORKS ND
400 AM CDT TUE JUN 30 2015

 **SATELLITE DATA USED TO AUGMENT SKY COVER AT AUTOMATED STATIONS**
 *****  WEATHER ACROSS EASTERN NORTH DAKOTA  *****

CITY           SKY/WX    TMP DP  RH WIND       PRES   REMARKS
GRAND FORKS    PTCLDY    56  55  97 NW3       29.93F FOG
GRAND FORKS AF PTCLDY    57  56  96 NW5       29.94F
GRAND CITY NWS   N/A     57 N/A N/A N1          N/A
BUXTON         NOT AVBL
DEVILS LAKE    MOCLDY    61  55  82 E3        29.95F
FARGO          PTCLDY    60  57  89 CALM      29.92F FOG
WAHPETON ARPT  SUNNY     61  55  82 N7        29.92S
$$

 *****  WEATHER ACROSS CENTRAL AND WESTERN NORTH DAKOTA  *****

CITY           SKY/WX    TMP DP  RH WIND       PRES   REMARKS
JAMESTOWN      MOCLDY    63  59  87 E6        29.93F
BISMARCK       CLOUDY    69  65  86 E10       29.93F
MINOT          CLOUDY    65  61  87 NE6       29.95R
MINOT AFB      CLOUDY    66  66 100 E7        29.94S
GARRISON         N/A     69  64  84 SE6       29.95S
WILLISTON      CLOUDY    70  58  65 CALM      29.94F HAZE
DICKINSON      MOCLDY    68  59  73 NE9       29.94R
HETTINGER      CLOUDY    67  62  84 NE6       29.93F
$$

 *****  OTHER OBSERVATIONS NORTHEAST NORTH DAKOTA  *****

CITY           SKY/WX    TMP DP  RH WIND       PRES   REMARKS
WALHALLA       FAIR      59  59 100 MISG      29.96S
LANGDON        FOG       54  54 100 CALM      29.99S VSB<1/4
CAVALIER       FAIR      57  57 100 CALM      29.95F FOG
GRAFTON        FAIR      57  57 100 N5        29.95F
CANDO          CLOUDY    59  59 100 E5        29.97S FOG
FORT TOTTEN      N/A     62  61  97 E2        29.95S
ROLLA          FOG       57  57 100 CALM      29.99F VSB<1/4
RUGBY          NOT AVBL
 ***** THE ABOVE OBSERVATIONS ARE NON NWS ARE NOT QUALITY
        CONTROLLED AND MAY MIS-REPORT RAIN FOR SNOW...
$$

 *****  OTHER OBSERVATIONS SOUTHEAST NORTH DAKOTA *****

CITY           SKY/WX    TMP DP  RH WIND       PRES   REMARKS
COOPERSTOWN    NOT AVBL
VALLEY CITY    CLOUDY    61  61 100 NE7       29.94F
OAKES            N/A     61  61 100 SW6       29.95R
GWINNER        NOT AVBL
SHEYENNE NWR     N/A     61  59  92 NE2       29.95S
BUFFALO        NOT AVBL
WYNDMERE       NOT AVBL
 ***** THE ABOVE OBSERVATIONS ARE NON NWS ARE NOT QUALITY
       CONTROLLED AND MAY MIS-REPORT RAIN FOR SNOW...
$$

  *****  WEATHER ACROSS NORTHERN MINNESOTA  *****

CITY           SKY/WX    TMP DP  RH WIND       PRES   REMARKS
FLAG ISLAND    CLEAR     61  54  77 E5        29.96S
WARROAD        CLEAR     59  55  88 SE5       29.97S
ROSEAU         CLEAR     54  48  82 CALM      29.96F HAZE
HALLOCK        PTCLDY    54  54 100 CALM      29.94F FOG
THF RVR FALLS  CLEAR     61  57  88 NE6       29.95F
HALSTAD        NOT AVBL
FOSSTON          N/A     52  48  87 CALM      29.95F FOG
BAUDETTE       CLEAR     54  51  90 E3        29.96R
WASKISH        CLEAR     55  54  94 NE5       29.96R
CROOKSTON      PTCLDY    55  54  94 CALM      29.95S FOG
$$
  *****  WEATHER ACROSS CENTRAL AND WEST MINNESOTA  *****

CITY           SKY/WX    TMP DP  RH WIND       PRES   REMARKS
BEMIDJI        CLEAR     49  49  98 CALM      29.94S
PARK RAPIDS    CLEAR     56  54  93 NW3       29.93S
WADENA         CLEAR     54  54 100 CALM      29.92S FOG
DETROIT LAKES  PTCLDY    61  57  88 CALM      29.94F
MOORHEAD       PTCLDY    57  55  94 CALM      29.93S FOG
FERGUS FALLS   PTCLDY    63  61  94 NE3       29.92S
ELBOW LAKE     FAIR      64  60  89 NE7       29.91S
MORRIS MN      PTCLDY    61  59  94 CALM      29.90R FOG
STAPLES        CLEAR     55  54  94 CALM      29.92S
WHEATON        CLEAR     59  57  94 N3        29.93S
$$
  *****  WEATHER ELSEWHERE ACROSS MINNESOTA  *****

CITY           SKY/WX    TMP DP  RH WIND       PRES   REMARKS
DULUTH         CLOUDY    60  56  86 N6        29.89S
INTRNTL FALLS  CLEAR     55  50  83 E3        29.95R
ELY            CLOUDY    57  52  82 NE6       29.93R
CLOQUET        CLEAR     55  54  94 N6        29.90R
BRAINERD       CLEAR     57  55  93 CALM      29.91F
HIBBING        CLEAR     54  52  93 N7        29.92R
ALEXANDRIA     CLEAR     63  57  81 NE7       29.93F
SAINT CLOUD    CLEAR     60  58  92 N3        29.88F FOG
MINNEAPOLIS    CLEAR     64  62  93 N7        29.85S
$$

  *****  WEATHER ACROSS SOUTH DAKOTA  *****

CITY           SKY/WX    TMP DP  RH WIND       PRES   REMARKS
SIOUX FALLS    CLOUDY    63  60  90 W3        29.92S
BROOKINGS      PTCLDY    59  55  88 CALM      29.95S
WATERTOWN      PTCLDY    63  59  87 N3        29.93F
HURON          LGT RAIN  68  65  90 CALM      29.92F
SISSETON         N/A     61  59  93 NW7       29.91S
ABERDEEN       CLOUDY    65  62  90 NE3       29.94S
MITCHELL       LGT RAIN  70  67  90 NE5       29.95R
PIERRE         CLEAR     69  62  78 E9        29.90S
MOBRIDGE       LGT RAIN  70  65  84 SE6       29.94R
RAPID CITY     MOCLDY    66  56  70 SW3       29.97F
$$

  *****  SOME WEATHER IN NEARBY STATES *****

CITY           SKY/WX    TMP DP  RH WIND       PRES   REMARKS
GLASGOW MT     NOT AVBL
GREAT FALLS MT MOCLDY    67  59  75 S10       29.99F
CHEYENNE WY    PTCLDY    58  45  62 W8        30.23F
SCOTTSBLUFF NE CLEAR     61  55  81 NE3       30.07F
OMAHA NE       CLOUDY    68  64  87 SE3       29.90F
DES MOINES IA  CLOUDY    68  62  81 W6        29.86S
DAVENPORT IA   CLEAR     61  59  93 W3        29.81S FOG
CHICAGO IL     CLOUDY    65  63  93 W7        29.76S
EAU CLAIRE WI  FOG       53  52  96 CALM      29.83R VSB 3/4
LA CROSSE WI   FOG       61  60  97 N5        29.82S VSB 3/4
$$

  *****  SOME NATIONAL WEATHER *****

CITY           SKY/WX    TMP DP  RH WIND       PRES   REMARKS
LA GUARDIA NY  PTCLDY    69  58  67 CALM      29.94F
RALEIGH NC     PTCLDY    70  61  73 CALM      29.93S
ATLANTA GA     MOCLDY    73  66  78 SW8       30.00F
NEW ORLEANS LA CLOUDY    79  70  74 SW9       30.02F
OKLAHOMA CITY  PTCLDY    69  65  86 CALM      29.99F
ALBUQUERQUE NM PTCLDY    74  47  38 E18       30.22F
SALT LAKE CITY MOCLDY    82  54  37 N3        30.04R
LOS ANGELES CA PTCLDY    67  61  81 W3        29.88F
BOISE ID       PTCLDY    84  52  33 S6        29.95S
SEATTLE WA     CLEAR     62  57  83 S6        30.09R
$$

*** WEATHER ACROSS MANITOBA...SASKATCHEWAN AND ONTARIO ***
                ***ONTARIO***

CITY           SKY/WX    TMP DP  RH WIND       PRES   REMARKS
GERALDTON      PTCLDY    41  39  93 NE3       29.97R
THUNDER BAY    PTCLDY    52  41  66 N8        29.92R
SIOUX LOOKOUT  PTCLDY    48  48 100 NE3       29.99S
TORONTO        MOCLDY    61  57  88 E5        29.85F
BIG TROUT LK   CLEAR     48  43  81 SW7       30.03S
PICKLE LAKE    NOT AVBL
DRYDEN         CLEAR     52  50  93 NE3       29.98S
KENORA         CLEAR     55  52  88 E6        29.98S
$$
                *** MANITOBA***

CITY           SKY/WX    TMP DP  RH WIND       PRES   REMARKS
BRANDON        CLOUDY    57  55  94 NE8       29.99S
DAUPHIN        MOCLDY    54  52  94 VRB2      29.98F FOG
ISLAND LAKE    PTCLDY    50  45  81 CALM      30.02S
PILOT MOUND      N/A     57  55  94 E5          N/A
THE PAS        CLEAR     55  54  94 S3        29.98S
THOMPSON       MOCLDY    48  46  93 CALM      30.00S
WINNIPEG       CLEAR     55  54  94 E6        29.97F
LYNN LAKE      PTCLDY    54  54 100 S6        29.95F
CHURCHILL      MOCLDY    46  43  87 SW6       29.93F
GILLAM         PTCLDY    45  39  81 S6        30.01F
$$
                ***SASKATCHEWAN***

CITY           SKY/WX    TMP DP  RH WIND       PRES   REMARKS
ESTEVAN          N/A     63  61  94 NE8       29.96F SMOKE
KINDERSLEY     MOCLDY    61  57  88 NE7       29.98
LLOYDMINSTER   LGT RAIN  61  57  88 NW5       30.00F
PRINCE ALBERT    N/A     59  55  88 CALM      29.97F SMOKE
REGINA         LGT RAIN  63  59  88 SW5       29.97F SMOKE


USA.gov is the U.S. government's official web portal to all federal, state and local government web resources and services.